Weather History for KH21 - October, 2012

Change the Weather History Date:

Thursday, October 25, 2012

  Actual Average (KAIZ) Record (KAIZ)
Temperature  
Mean Temperature 58 °F -  
Max Temperature 73 °F 64 °F 82 °F (2004)
Min Temperature 42 °F 44 °F 24 °F (2013)
Degree Days  
Heating Degree Days 8    
Growing Degree Days 8 (Base 50)    
Moisture  
Dew Point 50 °F    
Average Humidity 78    
Maximum Humidity 100    
Minimum Humidity 61    
Precipitation  
Precipitation 0.04 in - - ()
Sea Level Pressure  
Sea Level Pressure 29.94 in    
Wind  
Wind Speed 12 mph ()    
Max Wind Speed 24 mph    
Max Gust Speed 33 mph    
Visibility 9.6 miles    
Events Rain    
Averages and records for this station are not official NWS values.
T = Trace of Precipitation, MM = Missing Value Source: Averaged Metar Reports

Daily Weather History Graph

Daily Weather History Graph

Search for Another Location

Airport or City:

Trip Planner

Search our weather history database for the weather conditions in past years. The results will help you decide how hot, cold, wet, or windy it might be!

Date:

Astronomy

Oct. 25, 2012 Rise Set
Actual Time 7:29 AM CDT 6:19 PM CDT
Civil Twilight 7:02 AM CDT 6:46 PM CDT
Nautical Twilight 6:31 AM CDT 7:16 PM CDT
Astronomical Twilight 6:01 AM CDT 7:47 PM CDT
Moon 4:02 PM CDT (10/25) 3:30 AM CDT (10/25)
Length of Visible Light 11h 43m
Length of Day
10h 49m
Waxing Gibbous, 84% of the Moon is Illuminated
Oct 25
Waxing Gibbous
Oct 29
Full
Nov 6
Last Quarter
Nov 13
New
Nov 20
First Quarter

Hourly Weather History & Observations

Time (CDT) Temp. Windchill Dew Point Humidity Pressure Visibility Wind Dir Wind Speed Gust Speed Precip Events Conditions
12:15 AM 69.8 °F - 59.0 °F 68% 29.82 in 10.0 mi SSE 13.8 mph 18.4 mph N/A   Clear
12:35 AM 69.8 °F - 59.0 °F 68% 29.82 in 10.0 mi SSE 10.4 mph 19.6 mph N/A   Clear
12:55 AM 69.8 °F - 59.0 °F 68% 29.82 in 10.0 mi SSE 10.4 mph 19.6 mph N/A   Clear
1:35 AM 69.8 °F - 59.0 °F 68% 29.81 in 10.0 mi SSE 12.7 mph 19.6 mph N/A   Clear
1:55 AM 68.0 °F - 59.0 °F 73% 29.80 in 10.0 mi SSE 15.0 mph 20.7 mph N/A   Clear
2:35 AM 68.0 °F - 59.0 °F 73% 29.82 in 10.0 mi SSE 9.2 mph - N/A   Clear
2:55 AM 68.0 °F - 59.0 °F 73% 29.82 in 10.0 mi SSE 12.7 mph - N/A   Clear
3:15 AM 68.0 °F - 59.0 °F 73% 29.82 in 10.0 mi SSE 10.4 mph 17.3 mph N/A   Clear
3:35 AM 68.0 °F - 59.0 °F 73% 29.82 in 10.0 mi SSE 9.2 mph 17.3 mph N/A   Clear
3:55 AM 68.0 °F - 59.0 °F 73% 29.81 in 10.0 mi SSE 10.4 mph - N/A   Clear
4:15 AM 66.2 °F - 60.8 °F 83% 29.80 in 10.0 mi SSE 11.5 mph 17.3 mph N/A   Clear
4:35 AM 66.2 °F - 60.8 °F 83% 29.80 in 10.0 mi SSE 15.0 mph 20.7 mph N/A   Clear
4:55 AM 66.2 °F - 59.0 °F 78% 29.80 in 10.0 mi SSE 13.8 mph - N/A   Clear
5:15 AM 66.2 °F - 60.8 °F 83% 29.80 in 10.0 mi SSE 12.7 mph 18.4 mph N/A   Clear
5:35 AM 66.2 °F - 60.8 °F 83% 29.79 in 10.0 mi SSE 12.7 mph 19.6 mph N/A   Clear
5:55 AM 66.2 °F - 60.8 °F 83% 29.80 in 10.0 mi South 12.7 mph 20.7 mph N/A   Clear
6:15 AM 66.2 °F - 60.8 °F 83% 29.80 in 10.0 mi SSE 12.7 mph 18.4 mph N/A   Clear
6:35 AM 66.2 °F - 60.8 °F 83% 29.80 in 10.0 mi SSE 12.7 mph 18.4 mph N/A   Clear
6:55 AM 66.2 °F - 60.8 °F 83% 29.80 in 10.0 mi SSE 15.0 mph 18.4 mph N/A   Clear
7:15 AM 66.2 °F - 60.8 °F 83% 29.79 in 10.0 mi SSE 12.7 mph 18.4 mph N/A   Clear
7:35 AM 66.2 °F - 60.8 °F 83% 29.79 in 10.0 mi SSE 12.7 mph 17.3 mph N/A   Clear
7:55 AM 68.0 °F - 60.8 °F 78% 29.79 in 10.0 mi SSE 15.0 mph 19.6 mph N/A   Clear
8:35 AM 69.8 °F - 60.8 °F 73% 29.82 in 10.0 mi South 10.4 mph - N/A   Scattered Clouds
8:55 AM 69.8 °F - 60.8 °F 73% 29.81 in 10.0 mi South 15.0 mph 26.5 mph N/A   Mostly Cloudy
9:15 AM 71.6 °F - 60.8 °F 69% 29.81 in 10.0 mi South 15.0 mph 25.3 mph N/A   Scattered Clouds
9:35 AM 71.6 °F - 60.8 °F 69% 29.81 in 10.0 mi South 16.1 mph 25.3 mph N/A   Mostly Cloudy
9:55 AM 73.4 °F - 60.8 °F 65% 29.82 in 10.0 mi South 10.4 mph 25.3 mph N/A   Overcast
10:35 AM 73.4 °F - 60.8 °F 65% 29.82 in 10.0 mi SSW 12.7 mph 23.0 mph N/A   Overcast
10:55 AM 73.4 °F - 60.8 °F 65% 29.82 in 10.0 mi SSW 16.1 mph 25.3 mph N/A   Overcast
11:15 AM 73.4 °F - 60.8 °F 65% 29.82 in 10.0 mi South 11.5 mph 21.9 mph N/A   Overcast
11:35 AM 73.4 °F - 60.8 °F 65% 29.82 in 10.0 mi SSW 12.7 mph 21.9 mph N/A   Overcast
12:15 PM 73.4 °F - 60.8 °F 65% 29.82 in 10.0 mi SSW 18.4 mph 23.0 mph N/A   Overcast
12:35 PM 73.4 °F - 60.8 °F 65% 29.81 in 10.0 mi SSW 13.8 mph 24.2 mph N/A   Overcast
12:55 PM 73.4 °F - 59.0 °F 61% 29.83 in 10.0 mi West 24.2 mph 33.4 mph N/A   Overcast
1:15 PM 59.0 °F - 53.6 °F 82% 29.87 in 10.0 mi West 19.6 mph 24.2 mph N/A   Drizzle
1:35 PM 53.6 °F - 51.8 °F 94% 29.89 in 5.0 mi West 13.8 mph 24.2 mph N/A Rain Rain
1:55 PM 53.6 °F - 51.8 °F 94% 29.90 in 7.0 mi WNW 18.4 mph 21.9 mph N/A   Drizzle
2:15 PM 50.0 °F - 46.4 °F 87% 29.92 in 10.0 mi WNW 18.4 mph 24.2 mph 0.01 in   Drizzle
2:35 PM 46.4 °F 39.0 °F 46.4 °F 100% 29.94 in 7.0 mi WNW 19.6 mph 25.3 mph 0.03 in Rain Light Rain
2:55 PM 46.4 °F 40.7 °F 46.4 °F 100% 29.95 in 5.0 mi WNW 12.7 mph 18.4 mph 0.03 in   Drizzle
3:15 PM 46.4 °F 39.0 °F 44.6 °F 93% 29.96 in 4.0 mi WNW 19.6 mph 25.3 mph N/A   Drizzle
3:35 PM 44.6 °F 37.2 °F 42.8 °F 93% 29.99 in 7.0 mi WNW 17.3 mph 27.6 mph 0.01 in Rain Light Rain
3:55 PM 44.6 °F 37.8 °F 42.8 °F 93% 30.00 in 10.0 mi WNW 15.0 mph 23.0 mph 0.01 in   Overcast
4:15 PM 44.6 °F 37.4 °F 42.8 °F 93% 30.01 in 10.0 mi WNW 16.1 mph 25.3 mph N/A   Overcast
4:35 PM 44.6 °F 39.2 °F 42.8 °F 93% 30.02 in 10.0 mi WNW 10.4 mph 24.2 mph N/A   Overcast
4:55 PM 44.6 °F 38.4 °F 42.8 °F 93% 30.03 in 10.0 mi WNW 12.7 mph - N/A   Overcast
5:15 PM 44.6 °F 37.4 °F 41.0 °F 87% 30.04 in 10.0 mi WNW 16.1 mph 25.3 mph N/A   Overcast
5:35 PM 42.8 °F 36.2 °F 41.0 °F 93% 30.06 in 10.0 mi WNW 12.7 mph 19.6 mph N/A   Overcast
5:55 PM 42.8 °F 36.6 °F 41.0 °F 93% 30.07 in 10.0 mi WNW 11.5 mph - N/A   Overcast
6:15 PM 42.8 °F 36.2 °F 39.2 °F 87% 30.07 in 10.0 mi WNW 12.7 mph 19.6 mph N/A   Overcast
6:35 PM 42.8 °F 36.6 °F 39.2 °F 87% 30.08 in 10.0 mi NW 11.5 mph - N/A   Overcast
6:55 PM 42.8 °F 35.8 °F 37.4 °F 81% 30.09 in 10.0 mi NW 13.8 mph 20.7 mph N/A   Overcast
7:15 PM 42.8 °F 35.1 °F 37.4 °F 81% 30.11 in 10.0 mi NW 16.1 mph 20.7 mph N/A   Overcast
7:35 PM 44.6 °F 38.4 °F 37.4 °F 76% 30.12 in 10.0 mi WNW 12.7 mph 20.7 mph N/A   Overcast
7:55 PM 44.6 °F 37.4 °F 37.4 °F 76% 30.14 in 10.0 mi NW 16.1 mph 21.9 mph N/A   Overcast
8:15 PM 44.6 °F 38.4 °F 37.4 °F 76% 30.15 in 10.0 mi NW 12.7 mph 17.3 mph N/A   Overcast
8:35 PM 44.6 °F 38.4 °F 37.4 °F 76% 30.16 in 10.0 mi NW 12.7 mph 18.4 mph N/A   Overcast
8:55 PM 44.6 °F 39.7 °F 37.4 °F 76% 30.16 in 10.0 mi NW 9.2 mph 18.4 mph N/A   Overcast
9:15 PM 44.6 °F 38.8 °F 37.4 °F 76% 30.16 in 10.0 mi NW 11.5 mph 19.6 mph N/A   Overcast
9:35 PM 44.6 °F 38.1 °F 35.6 °F 71% 30.18 in 10.0 mi NNW 13.8 mph 20.7 mph N/A   Overcast
9:55 PM 44.6 °F 37.8 °F 35.6 °F 71% 30.18 in 10.0 mi NNW 15.0 mph 26.5 mph N/A   Overcast
10:15 PM 44.6 °F 37.4 °F 35.6 °F 71% 30.18 in 10.0 mi NNW 16.1 mph 26.5 mph N/A   Overcast
10:35 PM 44.6 °F 37.4 °F 35.6 °F 71% 30.20 in 10.0 mi NNW 16.1 mph 23.0 mph N/A   Overcast
10:55 PM 44.6 °F 40.2 °F 35.6 °F 71% 30.20 in 10.0 mi NNW 8.1 mph 18.4 mph N/A   Overcast
11:15 PM 44.6 °F 39.7 °F 33.8 °F 66% 30.21 in 10.0 mi NNW 9.2 mph 19.6 mph N/A   Overcast
11:35 PM 44.6 °F 36.6 °F 35.6 °F 71% 30.22 in 10.0 mi NNW 19.6 mph 25.3 mph N/A   Overcast
11:55 PM 42.8 °F 35.4 °F 33.8 °F 70% 30.22 in 10.0 mi NNW 15.0 mph 21.9 mph N/A   Overcast